Location: Quaker Farms
(41.4276°N, 73.1557°W)
Time: 00:58:23
(UTC+00:00)

Altair - Pass Details

Date: 20 June 2021
Orbit: 1501 x 1682 km, 47.2° (Epoch: 23 July)

Event Time Altitude Azimuth Distance (km) Brightness Sun altitude
Rises 17:08:49 0° 222° (SW) 4,646 10.2 71.8°
Reaches altitude 10° 17:11:51 10° 219° (SW) 3,681 9.9 71.6°
Maximum altitude 17:20:56 60° 142° (SE) 1,745 9.3 71.2°
Drops below altitude 10° 17:30:22 10° 66° (ENE) 3,825 9.6 70.5°
Sets 17:33:35 0° 63° (ENE) 4,837 9.9 70.2°
